Regional Weather Roundup
Issued by NWS

Home | Current Version | Previous Version | Graphics & Text | Print | Product List | Glossary On
Versions: 1 2 3 4 5 6 7 8 9 10 11 12 13 14 15 16 17 18 19 20 21 22 23 24 25 26 27 28 29 30 31 32 33 34 35 36 37 38 39 40 41 42 43 44 45 46 47 48 49 50
000
ASUS43 KBIS 272302
RWRND

NORTH DAKOTA REGIONAL WEATHER ROUNDUP
NATIONAL WEATHER SERVICE BISMARCK ND
600 PM CDT WED JUL 27 2016

NOTE: "FAIR" INDICATES FEW OR NO CLOUDS BELOW 12,000 FEET WITH NO
SIGNIFICANT WEATHER AND/OR OBSTRUCTIONS TO VISIBILITY.


NDZ001>003-009>011-017-280000-
NORTHWEST NORTH DAKOTA

CITY           SKY/WX    TMP DP  RH WIND       PRES   REMARKS
WILLISTON      LGT RAIN  65  60  84 NE9       30.15S
MINOT          CLOUDY    76  57  51 NE8       30.11F
MINOT AFB      CLOUDY    73  57  56 NE8       30.11F
$$

NDZ018>021-031>035-040>046-280000-
SOUTHWEST NORTH DAKOTA

CITY           SKY/WX    TMP DP  RH WIND       PRES   REMARKS
BISMARCK       CLOUDY    76  60  57 E8        30.08F
DICKINSON      CLOUDY    73  58  59 NE3       30.11R
GARRISON         N/A     73  60  63 E9        30.10F
HETTINGER ARPT CLOUDY    73  63  70 N9        30.14S
$$

NDZ004>008-012>016-024-026-027-054-280000-
NORTHEAST NORTH DAKOTA

CITY           SKY/WX    TMP DP  RH WIND       PRES   REMARKS
GRAND FORKS    MOSUNNY   77  59  53 N14       30.03F
GRND FRKS AFB  SUNNY     76  57  52 N16       30.05F
DEVILS LAKE    CLOUDY    71  56  58 N13       30.11F
$$

NDZ022-023-025-028>030-036>039-047>053-280000-
SOUTHEAST NORTH DAKOTA

CITY           SKY/WX    TMP DP  RH WIND       PRES   REMARKS
FARGO          SUNNY     78  58  49 N12       30.01F
JAMESTOWN      CLOUDY    74  58  57 N7        30.07F
$$




USA.gov is the U.S. government's official web portal to all federal, state and local government web resources and services.